Regional Weather Roundup
Issued by NWS

Home | Current Version | Previous Version | Text Only | Print | Product List | Glossary Off
Versions: 1 2 3 4 5 6 7 8 9 10 11 12 13 14 15 16 17 18 19 20 21 22 23 24 25 26 27

000
ASUS45 KCYS 302110
RWRWY

WYOMING REGIONAL WEATHER ROUNDUP
NATIONAL WEATHER SERVICE CHEYENNE WY
300 PM MDT THU OCT 30 2014

NOTE:  "FAIR" INDICATES FEW OR NO CLOUDS BELOW 12,000 FEET
WITH NO SIGNIFICANT WEATHER AND/OR OBSTRUCTIONS TO VISIBILITY.

WYZ001-302200-
YELLOWSTONE NATIONAL PARK

CITY           SKY/WX    TMP DP  RH WIND       PRES   REMARKS
LK YELLOWSTONE   N/A     45  29  53 VRB3      30.37
W YELLOWSTONE  NOT AVBL

$$
WYZ002>013-054>058-071-098>099-302200-
NORTHERN WYOMING

CITY           SKY/WX    TMP DP  RH WIND       PRES   REMARKS
JACKSON        SUNNY     57  28  33 S7        30.30F
CODY           MOSUNNY   59  25  27 S7        30.27
GREYBULL       SUNNY     61  26  26 SE6       30.26F
WORLAND        SUNNY     62  26  25 NW5       30.26F
SHERIDAN       SUNNY     61  27  27 E9        30.29F
BUFFALO        SUNNY     57  25  29 S6        30.33F
GILLETTE       SUNNY     58  28  32 NW8       30.32F
HULETT         FAIR      55  32  41 N7        30.34
NEWCASTLE      FAIR      55  28  35 NW10G18   30.32

$$
WYZ014>020-022>026-101>103-302200-
CENTRAL WYOMING

CITY           SKY/WX    TMP DP  RH WIND       PRES   REMARKS
BIG PINEY      SUNNY     56  26  31 CALM      30.35F
PINEDALE       CLEAR     55  25  30 NE3       30.35
DUBOIS         CLOUDY    57  25  28 N8        30.30S
LANDER         SUNNY     57  27  31 CALM      30.28F
RIVERTON       SUNNY     55  26  32 E6        30.30F
CASPER         SUNNY     58  22  24 VRB3      30.31F
DOUGLAS        SUNNY     60  25  26 VRB7      30.32F

$$
WYZ021-027>030-104>119-302200-
SOUTHERN WYOMING

CITY           SKY/WX    TMP DP  RH WIND       PRES   REMARKS
EVANSTON       MOSUNNY   65  24  21 W10       30.30F
KEMMERER       CLEAR     59  28  31 SE6       30.34F
FORT BRIDGER   FAIR      61  29  29 E6        30.35F
ROCK SPRINGS   SUNNY     59  23  25 CALM      30.32F
DIXON          FAIR      61  24  23 W5        30.36F
RAWLINS        SUNNY     59  21  23 W8        30.34F
SARATOGA       FAIR      59  21  23 W7        30.35F
LARAMIE        SUNNY     55  26  32 MISG      30.35F
CHEYENNE       SUNNY     58  25  28 E10       30.32F
TORRINGTON     SUNNY     64  27  24 N10       30.29F
PINE BLUFFS    FAIR      57  28  33 NE8       30.33S

$$



USA.gov is the U.S. government's official web portal to all federal, state and local government web resources and services.